Weather History for Valdez Airport, AK

Change the Weather History Date:

Monday, December 9, 2013

  Actual Average Record
Temperature  
Mean Temperature 27 °F -  
Max Temperature 30 °F 27 °F 40 °F (1971)
Min Temperature 24 °F 17 °F -5 °F (1966)
Degree Days  
Heating Degree Days 38    
Moisture  
Dew Point 25 °F    
Average Humidity 91    
Maximum Humidity 100    
Minimum Humidity 75    
Precipitation  
Precipitation 0.00 in - - ()
Sea Level Pressure  
Sea Level Pressure 30.33 in    
Wind  
Wind Speed 0 mph (East)    
Max Wind Speed 5 mph    
Max Gust Speed -    
Visibility 10 miles    
Events      
Averages and records for this station are not official NWS values.
T = Trace of Precipitation, MM = Missing Value Source: NWS Daily Summary

Daily Weather History Graph

Daily Weather History Graph

Search for Another Location

Airport:

Trip Planner

Search our weather history database for the weather conditions in past years. The results will help you decide how hot, cold, wet, or windy it might be!

Date:

Astronomy

Dec. 09, 2013 Rise Set
Actual Time 9:46 AM AKST 3:28 PM AKST
Civil Twilight 8:45 AM AKST 4:29 PM AKST
Nautical Twilight 7:46 AM AKST 5:28 PM AKST
Astronomical Twilight 6:53 AM AKST 6:21 PM AKST
Moon 12:54 PM AKST (12/9) 12:08 AM AKST (12/9)
Length of Visible Light 7h 43m
Length of Day
5h 42m
First Quarter, 52% of the Moon is Illuminated
Dec 9
First Quarter
Dec 17
Full
Dec 25
Last Quarter
Jan 1
New
Jan 7
First Quarter

Hourly Weather History & Observations

Time (AKST) Temp. Windchill Dew Point Humidity Pressure Visibility Wind Dir Wind Speed Gust Speed Precip Events Conditions
12:16 AM 24.8 °F - 23.0 °F 93% 30.42 in 7.0 mi Calm Calm - N/A   Overcast
12:36 AM 24.8 °F - 24.8 °F 100% 30.42 in 10.0 mi Calm Calm - N/A   Overcast
12:56 AM 26.6 °F - 24.8 °F 93% 30.41 in 10.0 mi Calm Calm - N/A   Overcast
1:16 AM 24.8 °F 20.5 °F 21.2 °F 86% 30.41 in 10.0 mi SW 3.5 mph - N/A   Overcast
1:36 AM 26.6 °F - 21.2 °F 80% 30.41 in 10.0 mi Calm Calm - N/A   Overcast
1:56 AM 24.8 °F - 23.0 °F 93% 30.41 in 10.0 mi Calm Calm - N/A   Overcast
2:16 AM 24.8 °F - 24.8 °F 100% 30.41 in 10.0 mi Calm Calm - N/A   Overcast
2:36 AM 24.8 °F - 21.2 °F 86% 30.40 in 10.0 mi Calm Calm - N/A   Overcast
2:56 AM 24.8 °F - 24.8 °F 100% 30.40 in 10.0 mi Calm Calm - N/A   Overcast
3:16 AM 24.8 °F - 21.2 °F 86% 30.40 in 10.0 mi Calm Calm - N/A   Overcast
3:36 AM 24.8 °F - 24.8 °F 100% 30.40 in 10.0 mi Calm Calm - N/A   Overcast
3:56 AM 24.8 °F 20.5 °F 23.0 °F 93% 30.39 in 10.0 mi ENE 3.5 mph - N/A   Overcast
4:16 AM 26.6 °F - 23.0 °F 86% 30.38 in 10.0 mi Calm Calm - N/A   Overcast
4:36 AM 26.6 °F - 24.8 °F 93% 30.38 in 10.0 mi Calm Calm - N/A   Overcast
4:56 AM 26.6 °F - 24.8 °F 93% 30.38 in 10.0 mi Calm Calm - N/A   Overcast
5:16 AM 26.6 °F - 24.8 °F 93% 30.38 in 10.0 mi Calm Calm - N/A   Overcast
5:36 AM 26.6 °F - 24.8 °F 93% 30.38 in 10.0 mi Calm Calm - N/A   Overcast
5:56 AM 26.6 °F - 21.2 °F 80% 30.38 in 10.0 mi Calm Calm - N/A   Overcast
6:16 AM 26.6 °F - 24.8 °F 93% 30.37 in 10.0 mi Calm Calm - N/A   Overcast
6:36 AM 26.6 °F - 24.8 °F 93% 30.35 in 10.0 mi Calm Calm - N/A   Overcast
6:56 AM 26.6 °F - 24.8 °F 93% 30.35 in 10.0 mi Calm Calm - N/A   Overcast
7:16 AM 26.6 °F 21.2 °F 24.8 °F 93% 30.35 in 10.0 mi East 4.6 mph - N/A   Overcast
7:36 AM 26.6 °F - 24.8 °F 93% 30.34 in 10.0 mi Calm Calm - N/A   Overcast
7:56 AM 26.6 °F - 24.8 °F 93% 30.34 in 10.0 mi Calm Calm - N/A   Overcast
8:16 AM 26.6 °F - 24.8 °F 93% 30.34 in 10.0 mi Calm Calm - N/A   Overcast
8:36 AM 26.6 °F - 24.8 °F 93% 30.34 in 10.0 mi Calm Calm - N/A   Overcast
8:56 AM 26.6 °F - 24.8 °F 93% 30.34 in 10.0 mi Calm Calm - N/A   Mostly Cloudy
9:16 AM 26.6 °F - 23.0 °F 86% 30.34 in 10.0 mi Calm Calm - N/A   Mostly Cloudy
9:36 AM 26.6 °F - 24.8 °F 93% 30.34 in 10.0 mi Calm Calm - N/A   Mostly Cloudy
9:56 AM 26.6 °F 22.6 °F 24.8 °F 93% 30.34 in 10.0 mi ESE 3.5 mph - N/A   Mostly Cloudy
10:16 AM 26.6 °F - 24.8 °F 93% 30.34 in 10.0 mi Calm Calm - N/A   Mostly Cloudy
10:36 AM 26.6 °F - 24.8 °F 93% 30.34 in 10.0 mi Calm Calm - N/A   Mostly Cloudy
10:56 AM 26.6 °F - 24.8 °F 93% 30.34 in 10.0 mi Calm Calm - N/A   Mostly Cloudy
11:16 AM 26.6 °F - 24.8 °F 93% 30.34 in 10.0 mi Calm Calm - N/A   Mostly Cloudy
11:36 AM 28.4 °F - 26.6 °F 93% 30.34 in 10.0 mi Calm Calm - N/A   Mostly Cloudy
11:56 AM 26.6 °F - 24.8 °F 93% 30.34 in 10.0 mi Calm Calm - N/A   Mostly Cloudy
12:16 PM 26.6 °F - 24.8 °F 93% 30.33 in 10.0 mi Calm Calm - N/A   Mostly Cloudy
12:36 PM 26.6 °F - 24.8 °F 93% 30.33 in 10.0 mi Calm Calm - N/A   Mostly Cloudy
12:56 PM 26.6 °F - 23.0 °F 86% 30.32 in 10.0 mi Calm Calm - N/A   Mostly Cloudy
1:16 PM 28.4 °F - 23.0 °F 80% 30.32 in 10.0 mi Calm Calm - N/A   Mostly Cloudy
1:36 PM 28.4 °F - 24.8 °F 86% 30.32 in 10.0 mi Calm Calm - N/A   Mostly Cloudy
1:56 PM 28.4 °F - 28.4 °F 100% 30.31 in 10.0 mi Calm Calm - N/A   Mostly Cloudy
2:16 PM 28.4 °F - 26.6 °F 93% 30.31 in 10.0 mi Calm Calm - N/A   Mostly Cloudy
2:36 PM 28.4 °F - 26.6 °F 93% 30.31 in 10.0 mi Calm Calm - N/A   Mostly Cloudy
2:56 PM 28.4 °F - 24.8 °F 86% 30.30 in 10.0 mi Calm Calm - N/A   Mostly Cloudy
3:16 PM 28.4 °F - 28.4 °F 100% 30.31 in 10.0 mi Calm Calm - N/A   Mostly Cloudy
3:36 PM 28.4 °F - 26.6 °F 93% 30.31 in 10.0 mi Calm Calm - N/A   Mostly Cloudy
3:56 PM 28.4 °F 23.3 °F 26.6 °F 93% 30.30 in 10.0 mi ENE 4.6 mph - N/A   Overcast
4:16 PM 28.4 °F - 24.8 °F 86% 30.30 in 10.0 mi Calm Calm - N/A   Overcast
4:36 PM 28.4 °F - 26.6 °F 93% 30.29 in 10.0 mi Calm Calm - N/A   Overcast
4:56 PM 28.4 °F - 26.6 °F 93% 30.29 in 10.0 mi Calm Calm - N/A   Overcast
5:16 PM 28.4 °F - 26.6 °F 93% 30.29 in 10.0 mi Calm Calm - N/A   Overcast
5:36 PM 28.4 °F - 26.6 °F 93% 30.29 in 10.0 mi Calm Calm - N/A   Overcast
5:56 PM 28.4 °F - 24.8 °F 86% 30.29 in 8.0 mi Calm Calm - N/A   Overcast
6:16 PM 28.4 °F - 26.6 °F 93% 30.29 in 8.0 mi Calm Calm - N/A   Overcast
6:36 PM 28.4 °F - 26.6 °F 93% 30.29 in 8.0 mi Calm Calm - N/A   Overcast
6:56 PM 28.4 °F - 26.6 °F 93% 30.28 in 8.0 mi Calm Calm - N/A   Overcast
7:16 PM 28.4 °F - 26.6 °F 93% 30.27 in 8.0 mi Calm Calm - N/A   Overcast
7:36 PM 28.4 °F - 26.6 °F 93% 30.27 in 8.0 mi Calm Calm - N/A   Overcast
7:56 PM 28.4 °F - 24.8 °F 86% 30.27 in 8.0 mi Calm Calm - N/A   Overcast
8:16 PM 28.4 °F - 24.8 °F 86% 30.27 in 8.0 mi Calm Calm - N/A   Overcast
8:36 PM 30.2 °F - 23.0 °F 75% 30.27 in 8.0 mi Calm Calm - N/A   Overcast
8:56 PM 30.2 °F - 26.6 °F 86% 30.27 in 10.0 mi Calm Calm - N/A   Overcast
9:16 PM 28.4 °F - 26.6 °F 93% 30.27 in 10.0 mi Calm Calm - N/A   Overcast
9:36 PM 30.2 °F - 26.6 °F 86% 30.27 in 10.0 mi Calm Calm - N/A   Overcast
9:56 PM 28.4 °F - 26.6 °F 93% 30.27 in 10.0 mi Calm Calm - N/A   Overcast
10:16 PM 28.4 °F - 26.6 °F 93% 30.27 in 10.0 mi Calm Calm - N/A   Overcast
10:36 PM 28.4 °F - 26.6 °F 93% 30.27 in 10.0 mi Calm Calm - N/A   Overcast
10:56 PM 28.4 °F - 24.8 °F 86% 30.27 in 10.0 mi Calm Calm - N/A   Overcast
11:16 PM 28.4 °F - 26.6 °F 93% 30.28 in 10.0 mi Calm Calm - N/A   Overcast
11:36 PM 28.4 °F - 26.6 °F 93% 30.28 in 10.0 mi Calm Calm - N/A   Overcast
11:56 PM 30.2 °F - 24.8 °F 80% 30.27 in 10.0 mi Calm Calm - N/A   Overcast